Powrót do katalogu

FENGYUN 1C DEB

AktywnySSO
NORAD 29807·DEBRIS·🇨🇳 China

Wystrzelony May 10, 1999 z Taiyuan Satellite Launch Center

Loading…

Następne Przeloty (najbliższe 24 godziny)

TLE

ŚwieżeSource: Space-Track

Epoka: Sep 14, 2026, 10:13 UTC

1 29807U 99025CZ  26257.42612175  .00000268  00000-0  17504-3 0  9997
2 29807  98.7600 259.2050 0078584 272.7561  86.4616 14.08866505  9725

Śledź FENGYUN 1C DEB w czasie rzeczywistym z AllMySat

Download on the App Store